Weather History for Houghton, MI

Change the Weather History Date:

Monday, January 21, 2013

  Actual Average Record
Temperature  
Mean Temperature -3 °F -  
Max Temperature 3 °F 24 °F 38 °F (1964)
Min Temperature -9 °F 9 °F -26 °F (1984)
Degree Days  
Heating Degree Days 68    
Moisture  
Dew Point -10 °F    
Average Humidity 78    
Maximum Humidity 85    
Minimum Humidity 66    
Precipitation  
Precipitation 0.00 in - - ()
Sea Level Pressure  
Sea Level Pressure 30.01 in    
Wind  
Wind Speed 15 mph (NW)    
Max Wind Speed 21 mph    
Max Gust Speed 30 mph    
Visibility 1 miles    
Events Fog , Snow    
Averages and records for this station are not official NWS values.
T = Trace of Precipitation, MM = Missing Value Source: NWS Daily Summary

Daily Weather History Graph

Daily Weather History Graph

Search for Another Location

Airport:

Trip Planner

Search our weather history database for the weather conditions in past years. The results will help you decide how hot, cold, wet, or windy it might be!

Date:

Astronomy

Jan. 21, 2013 Rise Set
Actual Time 8:31 AM EST 5:40 PM EST
Civil Twilight 7:57 AM EST 6:13 PM EST
Nautical Twilight 7:19 AM EST 6:51 PM EST
Astronomical Twilight 6:43 AM EST 7:27 PM EST
Moon 1:18 PM EST (1/21) 3:59 AM EST (1/21)
Length of Visible Light 10h 16m
Length of Day
9h 09m
Waxing Gibbous, 75% of the Moon is Illuminated
Jan 21
Waxing Gibbous
Jan 26
Full
Feb 3
Last Quarter
Feb 10
New
Feb 17
First Quarter

Hourly Weather History & Observations

Time (EST) Temp. Windchill Dew Point Humidity Pressure Visibility Wind Dir Wind Speed Gust Speed Precip Events Conditions
12:53 AM 3.0 °F -16.7 °F -0.9 °F 84% 30.06 in 0.5 mi NW 17.3 mph - 0.00 in Fog , Snow Light Snow
1:53 AM 1.9 °F -14.7 °F -2.0 °F 83% 30.05 in 0.5 mi NW 11.5 mph - 0.00 in Fog , Snow Light Snow
2:16 AM 1.4 °F -15.3 °F -2.2 °F 85% 29.96 in 1.0 mi NW 11.5 mph - 0.00 in Snow Light Snow
2:24 AM 1.4 °F -16.1 °F -2.2 °F 85% 29.96 in 0.8 mi WNW 12.7 mph - 0.00 in Snow Light Snow
2:33 AM 1.4 °F -16.9 °F -2.2 °F 85% 29.96 in 1.0 mi WNW 13.8 mph - 0.00 in Snow Light Snow
2:46 AM 1.4 °F -16.1 °F -2.2 °F 85% 29.96 in 0.5 mi NW 12.7 mph - 0.00 in Fog , Snow Snow
2:50 AM 1.4 °F -17.6 °F -2.2 °F 85% 29.96 in 0.2 mi NW 15.0 mph - 0.00 in Fog , Snow Snow
2:53 AM 1.9 °F -16.9 °F -2.9 °F 80% 30.05 in 0.2 mi NW 15.0 mph - 0.00 in Snow Heavy Snow
3:03 AM 1.4 °F -16.9 °F -2.2 °F 85% 29.96 in 0.5 mi NW 13.8 mph 23.0 mph 0.00 in Snow Snow
3:53 AM 1.0 °F -18.7 °F -4.0 °F 79% 30.04 in 0.5 mi NW 16.1 mph - 0.00 in Snow Snow
4:04 AM 1.4 °F -18.8 °F -4.0 °F 78% 29.94 in 0.8 mi NW 17.3 mph - N/A Snow Light Snow
4:27 AM 1.4 °F -15.3 °F -4.0 °F 78% 29.94 in 1.0 mi WNW 11.5 mph - 0.00 in Snow Light Snow
4:39 AM 1.4 °F -17.6 °F -5.8 °F 72% 29.93 in 0.8 mi NW 15.0 mph 21.9 mph 0.00 in Snow Light Snow
4:53 AM 1.0 °F -16.6 °F -4.0 °F 79% 30.02 in 0.8 mi WNW 12.7 mph - 0.00 in Snow Light Snow
5:06 AM 1.4 °F -17.6 °F -4.0 °F 78% 29.93 in 0.5 mi NW 15.0 mph - 0.00 in Snow Snow
5:15 AM 1.4 °F -16.1 °F -4.0 °F 78% 29.93 in 0.2 mi WNW 12.7 mph - 0.00 in Snow Heavy Snow
5:25 AM 1.4 °F -18.2 °F -4.0 °F 78% 29.93 in 0.5 mi WNW 16.1 mph - 0.00 in Snow Snow
5:34 AM 1.4 °F -16.1 °F -4.0 °F 78% 29.92 in 0.2 mi WNW 12.7 mph - 0.00 in Snow Heavy Snow
5:41 AM 1.4 °F -18.2 °F -4.0 °F 78% 29.92 in 0.5 mi WNW 16.1 mph 21.9 mph 0.00 in Snow Snow
5:46 AM 1.4 °F -16.1 °F -5.8 °F 72% 29.92 in 1.0 mi WNW 12.7 mph 21.9 mph 0.00 in Snow Light Snow
5:51 AM 1.4 °F -16.9 °F -7.6 °F 66% 29.92 in 4.0 mi West 13.8 mph - 0.00 in Snow Light Snow
5:53 AM 1.0 °F -18.0 °F -8.0 °F 66% 30.01 in 4.0 mi West 15.0 mph - 0.00 in Snow Light Snow
5:56 AM 1.4 °F -17.6 °F -7.6 °F 66% 29.92 in 0.8 mi West 15.0 mph - 0.00 in Snow Light Snow
6:13 AM -0.4 °F -19.2 °F -5.8 °F 78% 29.92 in 2.0 mi WNW 13.8 mph - 0.00 in Snow Light Snow
6:25 AM -0.4 °F -19.2 °F -7.6 °F 72% 29.93 in 0.8 mi WNW 13.8 mph - 0.00 in Snow Light Snow
6:36 AM -0.4 °F -19.2 °F -4.0 °F 85% 29.93 in 0.2 mi WNW 13.8 mph - 0.00 in Fog , Snow Heavy Snow
6:44 AM -0.4 °F -20.5 °F -4.0 °F 85% 29.93 in 0.2 mi WNW 16.1 mph 23.0 mph 0.00 in Fog , Snow Snow
6:51 AM -0.4 °F -20.5 °F -4.0 °F 85% 29.93 in 0.2 mi WNW 16.1 mph - 0.00 in Fog , Snow Snow
6:53 AM -0.0 °F -18.7 °F -4.0 °F 83% 30.02 in 0.2 mi WNW 13.8 mph - 0.00 in Fog , Snow Heavy Snow
7:12 AM -0.4 °F -19.9 °F -5.8 °F 78% 29.92 in 0.2 mi WNW 15.0 mph - 0.00 in Snow Heavy Snow
7:43 AM -0.4 °F -21.2 °F -5.8 °F 78% 29.92 in 0.2 mi WNW 17.3 mph - 0.00 in Fog , Snow Snow
7:53 AM -0.9 °F -22.4 °F -6.0 °F 79% 30.01 in 0.2 mi WNW 18.4 mph 25.3 mph 0.00 in Snow Heavy Snow
8:25 AM -2.2 °F -24.1 °F -5.8 °F 85% 29.92 in 0.2 mi NW 18.4 mph 26.5 mph 0.00 in Fog , Snow Snow
8:43 AM -2.2 °F -24.1 °F -7.6 °F 78% 29.92 in 0.2 mi WNW 18.4 mph 26.5 mph 0.00 in Snow Heavy Snow
8:53 AM -2.0 °F -23.3 °F -7.1 °F 79% 30.02 in 0.2 mi NW 17.3 mph 25.3 mph 0.00 in Snow Heavy Snow
9:29 AM -2.2 °F -25.2 °F -7.6 °F 78% 29.94 in 0.2 mi NW 20.7 mph - 0.00 in Fog , Snow Snow
9:53 AM -4.0 °F -27.0 °F -8.0 °F 83% 30.04 in 0.2 mi NW 19.6 mph - 0.00 in Fog , Snow Snow
10:09 AM -4.0 °F -26.4 °F -9.4 °F 78% 29.95 in 0.2 mi WNW 18.4 mph - 0.00 in Snow Heavy Snow
10:53 AM -5.1 °F -28.4 °F -9.9 °F 80% 30.06 in 0.2 mi NW 19.6 mph - 0.00 in Snow Heavy Snow
11:05 AM -5.8 °F -26.8 °F -9.4 °F 84% 29.97 in 0.5 mi NW 15.0 mph - 0.00 in Snow Snow
11:22 AM -5.8 °F -28.8 °F -11.2 °F 77% 29.98 in 0.2 mi WNW 18.4 mph - 0.00 in Snow Heavy Snow
11:53 AM -6.0 °F -27.7 °F -11.0 °F 79% 30.08 in 0.2 mi NW 16.1 mph - 0.00 in Snow Heavy Snow
12:53 PM -7.1 °F -30.4 °F -11.9 °F 79% 30.07 in 0.2 mi WNW 18.4 mph - 0.00 in Snow Heavy Snow
1:33 PM -7.6 °F -30.5 °F -13.0 °F 77% 29.97 in 0.5 mi WNW 17.3 mph - 0.00 in Snow Snow
1:50 PM -7.6 °F -31.1 °F -13.0 °F 77% 29.97 in 0.2 mi NW 18.4 mph - 0.00 in Snow Heavy Snow
1:53 PM -8.0 °F -31.6 °F -13.0 °F 79% 30.07 in 0.2 mi NW 18.4 mph - 0.00 in Snow Heavy Snow
2:05 PM -7.6 °F -30.5 °F -13.0 °F 77% 29.97 in 0.5 mi NW 17.3 mph - 0.00 in Snow Snow
2:19 PM -7.6 °F -30.5 °F -13.0 °F 77% 29.97 in 0.2 mi NW 17.3 mph - 0.00 in Snow Heavy Snow
2:42 PM -7.6 °F -31.1 °F -13.0 °F 77% 29.97 in 0.5 mi WNW 18.4 mph 26.5 mph 0.00 in Snow Snow
2:49 PM -7.6 °F -30.5 °F -14.8 °F 71% 29.97 in 0.2 mi WNW 17.3 mph 26.5 mph 0.00 in Snow Heavy Snow
2:53 PM -8.0 °F -30.3 °F -13.0 °F 79% 30.08 in 0.2 mi WNW 16.1 mph - 0.00 in Snow Heavy Snow
3:09 PM -7.6 °F -31.7 °F -14.8 °F 71% 29.98 in 0.5 mi WNW 19.6 mph - 0.00 in Snow Snow
3:19 PM -7.6 °F -31.1 °F -14.8 °F 71% 29.98 in 0.2 mi WNW 18.4 mph 27.6 mph 0.00 in Snow Heavy Snow
3:28 PM -7.6 °F -29.8 °F -14.8 °F 71% 29.98 in 0.2 mi WNW 16.1 mph - 0.00 in Snow Heavy Snow
3:53 PM -8.0 °F -29.6 °F -14.1 °F 75% 30.09 in 0.5 mi WNW 15.0 mph - 0.00 in Snow Snow
4:13 PM -7.6 °F -29.1 °F -14.8 °F 71% 30.00 in 0.2 mi WNW 15.0 mph - 0.00 in Snow Heavy Snow
4:22 PM -7.6 °F -28.3 °F -13.0 °F 77% 30.00 in 0.2 mi WNW 13.8 mph 23.0 mph 0.00 in Snow Heavy Snow
4:49 PM -7.6 °F -32.3 °F -14.8 °F 71% 30.00 in 0.5 mi WNW 20.7 mph - 0.00 in Snow Snow
4:53 PM -8.0 °F -31.0 °F -14.1 °F 75% 30.10 in 0.5 mi WNW 17.3 mph - 0.00 in Snow Snow
5:01 PM -7.6 °F -29.1 °F -13.0 °F 77% 30.00 in 0.5 mi WNW 15.0 mph 24.2 mph 0.00 in Snow Snow
5:09 PM -7.6 °F -29.8 °F -13.0 °F 77% 30.01 in 0.8 mi WNW 16.1 mph - 0.00 in Snow Light Snow
5:16 PM -7.6 °F -29.8 °F -14.8 °F 71% 30.01 in 1.0 mi WNW 16.1 mph - 0.00 in Snow Light Snow
5:27 PM -7.6 °F -29.1 °F -14.8 °F 71% 30.01 in 0.8 mi NW 15.0 mph 24.2 mph 0.00 in Snow Light Snow
5:50 PM -7.6 °F -29.1 °F -13.0 °F 77% 30.01 in 1.2 mi WNW 15.0 mph - 0.00 in Snow Light Snow
5:53 PM -8.0 °F -30.3 °F -13.0 °F 79% 30.12 in 1.2 mi NW 16.1 mph - 0.00 in Snow Light Snow
6:06 PM -7.6 °F -29.8 °F -13.0 °F 77% 30.01 in 0.8 mi NW 16.1 mph 24.2 mph 0.00 in Snow Light Snow
6:17 PM -7.6 °F -31.7 °F -14.8 °F 71% 30.02 in 1.0 mi NW 19.6 mph - 0.00 in Snow Light Snow
6:26 PM -7.6 °F -31.1 °F -14.8 °F 71% 30.02 in 0.8 mi WNW 18.4 mph - 0.00 in Snow Light Snow
6:53 PM -7.1 °F -31.0 °F -11.9 °F 79% 30.13 in 0.5 mi NW 19.6 mph - 0.00 in Snow Snow
7:53 PM -7.1 °F -28.4 °F -11.9 °F 79% 30.14 in 0.5 mi NW 15.0 mph 25.3 mph 0.00 in Snow Snow
8:04 PM -7.6 °F -29.8 °F -11.2 °F 84% 30.03 in 0.2 mi NW 16.1 mph 29.9 mph 0.00 in Fog , Snow Snow
8:11 PM -7.6 °F -29.1 °F -11.2 °F 84% 30.04 in 0.5 mi NW 15.0 mph - 0.00 in Fog , Snow Snow
8:22 PM -7.6 °F -31.1 °F -11.2 °F 84% 30.04 in 0.8 mi NW 18.4 mph 24.2 mph 0.00 in Snow Light Snow
8:39 PM -7.6 °F -31.1 °F -13.0 °F 77% 30.04 in 0.2 mi NW 18.4 mph 25.3 mph 0.00 in Snow Heavy Snow
8:46 PM -7.6 °F -30.5 °F -13.0 °F 77% 30.04 in 0.8 mi NW 17.3 mph - 0.00 in Snow Light Snow
8:50 PM -7.6 °F -29.1 °F -13.0 °F 77% 30.05 in 1.0 mi NW 15.0 mph - 0.00 in Snow Light Snow
8:53 PM -8.0 °F -31.0 °F -13.0 °F 79% 30.15 in 1.0 mi NW 17.3 mph - 0.00 in Snow Light Snow
9:03 PM -7.6 °F -30.5 °F -13.0 °F 77% 30.04 in 0.8 mi NNW 17.3 mph 25.3 mph 0.00 in Snow Light Snow
9:18 PM -7.6 °F -29.1 °F -14.8 °F 71% 30.05 in 1.0 mi NW 15.0 mph - N/A Snow Light Snow
9:25 PM -7.6 °F -31.1 °F -14.8 °F 71% 30.05 in 0.8 mi NNW 18.4 mph - 0.00 in Snow Light Snow
9:50 PM -7.6 °F -28.3 °F -14.8 °F 71% 30.05 in 1.2 mi NNW 13.8 mph - 0.00 in Snow Light Snow
9:53 PM -8.0 °F -28.0 °F -14.1 °F 75% 30.16 in 1.0 mi NNW 12.7 mph - 0.00 in Snow Light Snow
10:03 PM -7.6 °F -27.5 °F -13.0 °F 77% 30.05 in 0.5 mi NNW 12.7 mph 27.6 mph 0.00 in Snow Snow
10:25 PM -9.4 °F -29.8 °F -14.8 °F 77% 30.05 in 0.8 mi NNW 12.7 mph 23.0 mph 0.00 in   Haze
10:41 PM -9.4 °F -29.8 °F -13.0 °F 84% 30.06 in 1.0 mi NNW 12.7 mph 23.0 mph 0.00 in   Mist
10:53 PM -9.0 °F -28.4 °F -14.1 °F 79% 30.16 in 1.0 mi NNW 11.5 mph 21.9 mph 0.00 in   Haze
11:53 PM -9.0 °F -29.3 °F -15.0 °F 75% 30.17 in 1.2 mi NNW 12.7 mph - N/A   Haze